Weather in Canyamel

Spain     39°39′30″N   3°26′19″E
temp.,
°C
wind,
m/s
gust,
m/s
humid.,
%
clouds,
%
prec.,
mm/h
press.,
hPa
HPBL,
m
8 may, sat
sat823:00+18se56845 0.0 1019139
02:00+17s45844 0.0 1019123
05:00+17ssw33815 0.0 101862
08:00+18s44770 0.0 101977
11:00+19sse66700 0.0 1019140
14:00+20sse79681 0.0 1018182
17:00+20sse796915 0.0 1016183
20:00+19sse6977100 0.0 1015189
9 may, sun
sun923:00+18sse6880100 0.0 1015169
02:00+18sse6985100 0.0 1013242
05:00+18se6986100 0.0 1011242
08:00+18se9158498 0.0 1010344
11:00+20sse121875100 0.0 1008383
14:00+22s101268100 0.1 1008206
17:00+23sw6756100 0.0 1007147
20:00+19sse8108111 0.0 1007154
10 may, mon
mon1023:00+18sw448990 0.6 100950
02:00+18wsw3381100 0.8 100827
05:00+18w51084100 0.6 1009321
08:00+17wsw4782100 1.3 1011209
11:00+18ssw6972100 0.0 1012328
14:00+16sw61377100 0.3 1013645
17:00+18ssw797596 0.1 1012420
20:00+17s7982100 0.1 1011415
11 may, tue
tue1123:00+18s91584100 0.0 1012599
02:00+18ssw913770 0.1 1011615
05:00+16sw813823 0.4 1010532
08:00+17wsw79705 0.4 1010468
11:00+18wnw56640 0.2 1012503
14:00+16nw1110645 1.6 1013919
17:00+17wnw1114531 0.0 10141674
20:00+18w1014480 0.0 10151008
12 may, wed
wed1223:00+15ne56710 0.1 1019390
02:00+15sw44700 0.1 1019234
05:00+15wnw69670 0.0 1018796
08:00+15w68600 0.0 1018729
11:00+16wnw89550 0.0 1019951
14:00+16nw1111580 0.0 1018648
17:00+17nnw77564 0.0 1016478
20:00+17ese11520 0.0 1015197